Weather History for Plattsburgh, NY

Change the Weather History Date:

Thursday, October 25, 2012

  Actual Average Record
Temperature  
Mean Temperature 49 °F 44 °F  
Max Temperature 62 °F 54 °F 78 °F (1963)
Min Temperature 35 °F 35 °F 20 °F (1981)
Degree Days  
Heating Degree Days 16 21  
Month to date heating degree days 371 415  
Since 1 July heating degree days 595 650  
Cooling Degree Days 0 0  
Month to date cooling degree days 0 0  
Year to date cooling degree days 493 345  
Moisture  
Dew Point 43 °F    
Average Humidity 76    
Maximum Humidity 92    
Minimum Humidity 60    
Precipitation  
Precipitation 0.00 in - 1.23 in (2008)
Month to date precipitation 2.98  
Year to date precipitation 23.50  
Sea Level Pressure  
Sea Level Pressure 30.18 in    
Wind  
Wind Speed 6 mph (SSE)    
Max Wind Speed 16 mph    
Max Gust Speed 21 mph    
Visibility 10 miles    
Events      
T = Trace of Precipitation, MM = Missing Value Source: NWS Daily Summary

Daily Weather History Graph

Daily Weather History Graph

Search for Another Location

Airport:

Trip Planner

Search our weather history database for the weather conditions in past years. The results will help you decide how hot, cold, wet, or windy it might be!

Date:

Astronomy

Oct. 25, 2012 Rise Set
Actual Time 7:22 AM EDT 5:52 PM EDT
Civil Twilight 6:52 AM EDT 6:22 PM EDT
Nautical Twilight 6:18 AM EDT 6:56 PM EDT
Astronomical Twilight 5:44 AM EDT 7:30 PM EDT
Moon 3:44 PM EDT (10/25) 3:07 AM EDT (10/25)
Length of Visible Light 11h 29m
Length of Day
10h 29m
Waxing Gibbous, 84% of the Moon is Illuminated
Oct 25
Waxing Gibbous
Oct 29
Full
Nov 6
Last Quarter
Nov 13
New
Nov 20
First Quarter

Hourly Weather History & Observations

Time (EDT) Temp. Dew Point Humidity Pressure Visibility Wind Dir Wind Speed Gust Speed Precip Events Conditions
12:53 AM 39.9 °F 35.1 °F 83% 30.22 in 10.0 mi Calm Calm - N/A   Clear
1:53 AM 37.0 °F 35.1 °F 93% 30.22 in 10.0 mi Calm Calm - N/A   Clear
2:53 AM 37.0 °F 34.0 °F 89% 30.22 in 10.0 mi Calm Calm - N/A   Clear
3:53 AM 39.0 °F 35.1 °F 86% 30.21 in 10.0 mi Calm Calm - N/A   Overcast
4:53 AM 37.0 °F 35.1 °F 93% 30.20 in 10.0 mi Calm Calm - N/A   Partly Cloudy
5:53 AM 36.0 °F 34.0 °F 93% 30.20 in 10.0 mi Calm Calm - N/A   Clear
6:53 AM 36.0 °F 34.0 °F 93% 30.21 in 10.0 mi Calm Calm - N/A   Clear
7:53 AM 37.9 °F 35.1 °F 89% 30.21 in 10.0 mi Calm Calm - N/A   Clear
8:53 AM 46.9 °F 39.0 °F 74% 30.22 in 10.0 mi Calm Calm - N/A   Mostly Cloudy
9:53 AM 48.0 °F 42.1 °F 80% 30.22 in 10.0 mi Calm Calm - N/A   Overcast
10:53 AM 51.1 °F 42.1 °F 71% 30.22 in 10.0 mi Calm Calm - N/A   Overcast
11:53 AM 55.9 °F 45.0 °F 67% 30.20 in 10.0 mi SSE 6.9 mph - N/A   Overcast
12:53 PM 59.0 °F 46.9 °F 64% 30.18 in 10.0 mi SSE 9.2 mph - N/A   Overcast
1:53 PM 61.0 °F 46.9 °F 60% 30.15 in 10.0 mi SSE 12.7 mph - N/A   Overcast
2:53 PM 61.0 °F 48.0 °F 62% 30.14 in 10.0 mi SSE 12.7 mph - N/A   Overcast
3:53 PM 60.1 °F 50.0 °F 69% 30.14 in 10.0 mi SSE 15.0 mph - N/A   Overcast
4:53 PM 60.1 °F 50.0 °F 69% 30.13 in 10.0 mi SE 10.4 mph - N/A   Overcast
5:53 PM 59.0 °F 50.0 °F 72% 30.13 in 10.0 mi South 9.2 mph - N/A   Mostly Cloudy
6:53 PM 57.9 °F 51.1 °F 78% 30.13 in 10.0 mi South 5.8 mph - N/A   Overcast
7:53 PM 55.9 °F 50.0 °F 80% 30.12 in 10.0 mi South 4.6 mph - N/A   Scattered Clouds
9:53 PM 57.0 °F 52.0 °F 83% 30.13 in 10.0 mi SSE 11.5 mph - N/A   Overcast
10:53 PM 55.9 °F 51.1 °F 84% 30.13 in 10.0 mi SSE 13.8 mph - N/A   Mostly Cloudy